STARLINK-32632, 62262

Orbit data source: Space-Track

STARLINK-32632, 62262 is a payload satellite owned by SpaceX/Seattle (US) in LEO that was launched on Thu, 05 Dec 2024 UTC via an FALCON 9 launch vehicle from the Air Force Western Test Range (AFWTR). Payload-class satellites include a variety of spacecraft equipped with specific instruments for various scientific and technological missions. These include communications satellites like Starlink; space stations such as the ISS; scientific satellites like the Hubble; Earth observation satellites from companies like Planet Labs, Umbra, and HawkEye 360; GPS; miniature CubeSats for education and research; and military/defense satellites.

Loading next visibility...
Identifier
62262, 2024-231V
Orbit
LEO
Country
Flag of USUS
Related business
Manufacturer
SpaceX/Seattle
Mission
Operational Commercial Communications
Bus & Motor
STARLINK V2M, Unknown motor
Mass
730 kg wet, ~700 kg dry
Launch date (UTC)
2024-12-05 (11 months ago)
Launch vehicle
FALCON 9
Launch site
Air Force Western Test Range (AFWTR)
Object type
Payload
Rocket body
Debris
Shape & HBR
Box + 2 Pan, 17.7 m
Radar Cross Section
33.884 m², Large (>1 m²)

Expand to show TLE details & history
Last TLE update: 2 days ago

TLE from 2 days ago
0 STARLINK-32632
1 62262U 24231V   25305.12856482  .00026648  00000-0  90884-3 0  9999
2 62262  53.1582  96.8832 0001136  86.1428 273.9703 15.30192393 52082
Epoch: 2025-11-01T03:05Z
TLE epoch observation values (Epoch: 2025-11-01T03:05:08.000Z)
Latitude
0.00001°
Longitude
9.93679°
Altitude
476.083 km
Speed
7.629 km/s
True Right ascension
06h 27m 31s
True Declination
0° 00' 00"
Sunlit
Object was in full shadow at epoch
Visualization orbit readout
Latitude
Unknown
Longitude
Unknown
Altitude
Unknown
Speed
Unknown
Apparent Right ascension
Unknown
Apparent Declination
Unknown
Sunlit
N/A
Visualization observer readout
Local Sidereal Time
11:29:26
Azimuth
Unknown
Elevation
Unknown
Doppler factor
Unknown
Orbital elements
Apogee altitude
476.273 km
Perigee altitude
474.716 km
Semi-major axis
6,853.632 km
Eccentricity
0.00011
Inclination
53.1582°
RAAN
96.8832°
Arg. of periapsis
86.1428°
True anomaly
273.95731°
Mean anomaly
273.9703°
Eccentric anomaly
273.96381°
Mean motion
3.82527 °/min
Orbital period
94.11 mins
BSTAR
0.00090884
Loading maneuver chart data...
Computing Atmospheric mass density...
Loading historical data...
Loading historical data...
Loading historical data...
Loading historical data...
Loading historical data...
Loading historical data...
Loading historical data...

Documentation

Showing up to 5 results
|